NDF6045 EDLW-EHEH

Flight info

Callsign NDF6045
Flight time 0h 28m
Altitude 8000
Route BAMSU2Q BAMSU M170 LNO LNO4E
Aircraft A320/M-SDE3FGHIRWY/LB1

Departure

Time 2026-05-05 16:02
Airport Dortmund Airport (EDLW)

Arrival

Time 2026-05-05 16:30
Airport Eindhoven Airport (EHEH)
Time Latitude Longitude Altitude Speed Heading
2026-05-05 15:40 51.51477 7.61119 429 ft 0 kts 143°
2026-05-05 15:55 51.51495 7.61099 432 ft 4 kts 141°
2026-05-05 15:55 51.51511 7.61073 428 ft 4 kts 121°
2026-05-05 15:56 51.51515 7.61040 436 ft 4 kts 53°
2026-05-05 15:56 51.51496 7.61011 434 ft 4 kts 47°
2026-05-05 15:56 51.51489 7.60998 438 ft 1 kts 60°
2026-05-05 15:58 51.51500 7.61027 429 ft 8 kts 57°
2026-05-05 15:58 51.51544 7.61057 438 ft 8 kts 350°
2026-05-05 15:59 51.51566 7.60979 435 ft 12 kts 248°
2026-05-05 15:59 51.51519 7.60846 427 ft 15 kts 240°
2026-05-05 15:59 51.51461 7.60682 439 ft 18 kts 241°
2026-05-05 15:59 51.51426 7.60585 426 ft 0 kts 241°
2026-05-05 16:00 51.51414 7.60550 435 ft 13 kts 241°
2026-05-05 16:00 51.51359 7.60375 433 ft 20 kts 259°
2026-05-05 16:00 51.51451 7.60232 432 ft 21 kts 342°
2026-05-05 16:00 51.51495 7.60265 428 ft 0 kts 60°
2026-05-05 16:01 51.51496 7.60267 428 ft 3 kts 60°
2026-05-05 16:01 51.51622 7.60622 415 ft 78 kts 60°
2026-05-05 16:01 51.52000 7.61696 413 ft 144 kts 60°
2026-05-05 16:01 51.52504 7.63097 939 ft 144 kts 60°
2026-05-05 16:02 51.53014 7.64543 1461 ft 154 kts 61°
2026-05-05 16:02 51.53539 7.66089 2049 ft 161 kts 60°
2026-05-05 16:02 51.54119 7.67730 2573 ft 175 kts 61°
2026-05-05 16:02 51.54734 7.69500 3056 ft 192 kts 60°
2026-05-05 16:03 51.55436 7.71475 3426 ft 215 kts 60°
2026-05-05 16:03 51.56047 7.73781 3850 ft 237 kts 83°
2026-05-05 16:03 51.55685 7.76363 4559 ft 244 kts 124°
2026-05-05 16:03 51.54419 7.78113 5107 ft 247 kts 158°
2026-05-05 16:04 51.52733 7.78398 5953 ft 247 kts 193°
2026-05-05 16:04 51.51146 7.77343 6841 ft 248 kts 213°
2026-05-05 16:04 51.49808 7.75560 7685 ft 251 kts 228°
2026-05-05 16:04 51.48808 7.73252 8042 ft 254 kts 244°
2026-05-05 16:05 51.48084 7.70704 8139 ft 253 kts 246°
2026-05-05 16:05 51.47353 7.68140 8150 ft 252 kts 245°
2026-05-05 16:05 51.46623 7.65577 8150 ft 252 kts 245°
2026-05-05 16:05 51.45893 7.63015 8151 ft 252 kts 245°
2026-05-05 16:06 51.45162 7.60454 8079 ft 255 kts 245°
2026-05-05 16:06 51.44385 7.57744 8001 ft 274 kts 245°
2026-05-05 16:06 51.43579 7.54939 8008 ft 278 kts 245°
2026-05-05 16:06 51.42775 7.52147 8008 ft 279 kts 245°
2026-05-05 16:07 51.41999 7.49284 8007 ft 279 kts 253°
2026-05-05 16:07 51.41627 7.46235 8009 ft 279 kts 261°
2026-05-05 16:07 51.41316 7.43165 8009 ft 279 kts 261°
2026-05-05 16:07 51.41006 7.40083 8009 ft 279 kts 261°
2026-05-05 16:08 51.40697 7.37004 8009 ft 279 kts 261°
2026-05-05 16:08 51.40389 7.33941 8009 ft 279 kts 261°
2026-05-05 16:08 51.40078 7.30856 8009 ft 279 kts 261°
2026-05-05 16:08 51.39770 7.27820 8008 ft 279 kts 261°
2026-05-05 16:09 51.39455 7.24746 8008 ft 279 kts 261°
2026-05-05 16:09 51.39141 7.21679 8008 ft 279 kts 261°
2026-05-05 16:09 51.38828 7.18599 8009 ft 279 kts 261°
2026-05-05 16:09 51.38520 7.15560 8009 ft 279 kts 261°
2026-05-05 16:10 51.38202 7.12454 8009 ft 279 kts 261°
2026-05-05 16:10 51.37889 7.09419 8010 ft 279 kts 261°
2026-05-05 16:10 51.37573 7.06354 8010 ft 279 kts 261°
2026-05-05 16:10 51.37255 7.03278 8010 ft 279 kts 261°
2026-05-05 16:11 51.36936 7.00206 8010 ft 279 kts 261°
2026-05-05 16:11 51.35977 6.91014 8011 ft 279 kts 261°
2026-05-05 16:12 51.35655 6.87948 8011 ft 279 kts 261°
2026-05-05 16:12 51.35010 6.81815 8011 ft 279 kts 260°
2026-05-05 16:13 51.34040 6.72661 8011 ft 279 kts 260°
2026-05-05 16:13 51.33714 6.69588 8011 ft 279 kts 260°
2026-05-05 16:13 51.33389 6.66533 8011 ft 279 kts 260°
2026-05-05 16:14 51.32740 6.60450 8010 ft 279 kts 260°
2026-05-05 16:14 51.32082 6.54335 8010 ft 279 kts 260°
2026-05-05 16:15 51.31417 6.48218 8009 ft 279 kts 260°
2026-05-05 16:15 51.30752 6.42093 8009 ft 279 kts 260°
2026-05-05 16:16 51.30088 6.36035 8009 ft 279 kts 260°
2026-05-05 16:16 51.29416 6.29901 8008 ft 279 kts 260°
2026-05-05 16:17 51.28743 6.23793 8008 ft 279 kts 260°
2026-05-05 16:17 51.28404 6.20736 8008 ft 279 kts 260°
2026-05-05 16:18 51.27732 6.14673 8007 ft 279 kts 260°
2026-05-05 16:18 51.27405 6.11738 8007 ft 279 kts 260°
2026-05-05 16:18 51.26718 6.05630 7930 ft 279 kts 260°
2026-05-05 16:19 51.26373 6.02587 7801 ft 278 kts 260°
2026-05-05 16:19 51.26028 5.99551 7673 ft 278 kts 259°
2026-05-05 16:19 51.25359 5.93522 7425 ft 277 kts 263°
2026-05-05 16:20 51.25895 5.87518 7174 ft 275 kts 294°
2026-05-05 16:20 51.27694 5.82118 6997 ft 274 kts 298°
2026-05-05 16:21 51.29498 5.76763 6968 ft 276 kts 298°
2026-05-05 16:22 51.32203 5.68692 6593 ft 273 kts 298°
2026-05-05 16:22 51.33471 5.63028 6338 ft 271 kts 274°
2026-05-05 16:23 51.32920 5.57446 6082 ft 245 kts 252°
2026-05-05 16:23 51.32418 5.54907 5963 ft 233 kts 252°
2026-05-05 16:23 51.31487 5.50175 5705 ft 212 kts 252°
2026-05-05 16:24 51.31034 5.47879 5582 ft 228 kts 252°
2026-05-05 16:24 51.30544 5.45405 5305 ft 237 kts 252°
2026-05-05 16:24 51.29553 5.40369 4459 ft 241 kts 252°
2026-05-05 16:25 51.29053 5.37808 4033 ft 242 kts 255°
2026-05-05 16:25 51.29624 5.32685 3180 ft 243 kts 304°
2026-05-05 16:25 51.30569 5.30458 2741 ft 238 kts 304°
2026-05-05 16:26 51.32398 5.26344 2116 ft 212 kts 320°
2026-05-05 16:26 51.34937 5.26197 2129 ft 191 kts 36°
2026-05-05 16:27 51.35954 5.27353 2025 ft 169 kts 34°
2026-05-05 16:27 51.36888 5.28381 1792 ft 158 kts 34°
2026-05-05 16:27 51.37778 5.29367 1590 ft 153 kts 34°
2026-05-05 16:27 51.38646 5.30334 1398 ft 151 kts 34°
2026-05-05 16:28 51.39494 5.31279 1201 ft 150 kts 34°
2026-05-05 16:28 51.40330 5.32212 1024 ft 142 kts 34°
2026-05-05 16:28 51.41129 5.33104 825 ft 138 kts 34°
2026-05-05 16:28 51.41909 5.33976 643 ft 136 kts 34°
2026-05-05 16:29 51.42684 5.34846 457 ft 135 kts 35°
2026-05-05 16:29 51.43451 5.35712 265 ft 135 kts 35°
2026-05-05 16:29 51.44217 5.36563 90 ft 133 kts 34°
2026-05-05 16:29 51.44891 5.37320 70 ft 98 kts 35°
2026-05-05 16:30 51.45312 5.37777 81 ft 55 kts 36°
2026-05-05 16:30 51.45611 5.38122 70 ft 51 kts 36°
2026-05-05 16:30 51.45851 5.38392 73 ft 21 kts 36°
2026-05-05 16:30 51.45903 5.38450 77 ft 0 kts 36°
2026-05-05 16:31 51.45916 5.38505 76 ft 15 kts 91°
2026-05-05 16:31 51.45873 5.38582 74 ft 7 kts 120°
2026-05-05 16:31 51.45863 5.38610 75 ft 9 kts 120°
2026-05-05 16:31 51.45849 5.38647 69 ft 4 kts 121°
2026-05-05 16:32 51.45828 5.38697 66 ft 0 kts 124°
2026-05-05 16:32 51.45828 5.38698 66 ft 0 kts 124°
2026-05-05 16:32 51.45813 5.38732 72 ft 7 kts 125°
2026-05-05 16:32 51.45791 5.38798 70 ft 6 kts 99°
2026-05-05 16:33 51.45844 5.38890 69 ft 16 kts 35°
2026-05-05 16:33 51.45883 5.38934 66 ft 1 kts 36°
2026-05-05 16:33 51.45881 5.38994 70 ft 4 kts 125°
2026-05-05 16:33 51.45858 5.39048 67 ft 2 kts 126°
2026-05-05 16:34 51.45858 5.39049 67 ft 0 kts 126°
2026-05-05 16:34 51.45858 5.39048 67 ft 0 kts 126°